Theta_e
323 323 324 325 322 317 320 322 319 319 319 317 317 318 319 320 323 323 321 324 325 325 323 326 327 329 330 331 332 332 332 332 332 333 333 333 332 333 332 332 333 334 334 334 334 335 335 335 335
322 323 324 321 322 323 322 318 318 318 317 316 316 318 317 320 316 316 317 322 323 325 324 322 323 323 326 326 329 331 330 332 332 332 331 329 329 330 330 329 328 328 330 332 331 331 329 327 330
320 321 321 322 321 321 318 317 315 316 315 317 317 316 317 318 315 316 316 321 321 322 321 320 322 325 325 324 324 328 328 328 330 328 325 325 323 322 322 321 320 320 321 326 328 326 325 325 326
321 318 314 316 317 316 317 315 315 315 316 315 315 317 314 315 316 316 316 320 319 320 318 318 320 322 321 319 320 321 320 325 320 319 317 318 316 315 313 311 311 310 309 315 315 313 311 310 313
318 315 321 318 317 317 316 314 313 316 314 315 315 316 315 313 316 316 315 318 318 318 317 318 318 319 318 317 316 314 314 317 313 313 310 310 309 309 309 310 310 308 309 310 310 308 305 302 301
316 313 317 319 320 318 316 315 314 315 314 313 315 314 314 312 313 312 314 317 316 316 314 315 315 314 314 315 314 312 311 310 309 309 307 306 304 303 302 305 306 304 307 308 307 307 306 306 306
319 319 321 321 320 318 317 314 315 314 313 314 312 314 311 309 311 310 311 314 315 314 312 311 311 310 308 308 305 303 302 301 300 299 298 297 297 296 296 296 296 297 301 305 305 305 306 306 307
314 313 318 317 318 319 315 316 315 314 315 312 312 313 313 308 310 308 307 308 311 311 311 307 307 307 305 303 301 300 299 297 297 297 297 297 297 297 296 296 296 296 299 302 302 300 298 296 296
318 314 315 318 320 319 315 315 314 312 313 314 313 313 311 311 309 307 305 304 305 305 305 305 304 302 301 299 298 297 296 296 296 297 299 299 296 296 296 295 295 296 296 295 295 295 295 295 295
317 317 319 318 317 317 315 314 312 314 313 312 313 308 310 309 308 305 303 302 303 303 303 303 303 302 302 300 297 296 296 297 299 298 298 298 296 296 296 295 295 295 295 294 294 294 294 294 294
316 315 317 317 317 314 315 314 313 312 312 310 311 309 306 305 304 304 303 303 303 303 303 302 302 302 302 300 297 298 299 299 298 297 297 297 296 296 296 295 295 295 294 294 294 294 294 293 293
319 316 317 317 316 315 315 313 314 311 313 312 309 309 306 304 303 303 303 303 303 303 303 302 301 301 301 300 298 299 298 298 297 296 296 297 296 295 295 295 295 295 294 294 294 294 293 293 293
318 317 316 315 314 314 314 313 312 311 310 309 309 309 306 305 305 305 304 304 303 303 303 302 301 301 301 298 298 299 299 298 298 296 296 296 296 295 295 295 294 294 294 293 293 293 292 292 292
315 316 314 313 314 313 314 313 313 312 311 310 310 309 305 306 305 304 304 304 304 304 304 303 301 301 300 299 298 299 299 298 298 296 295 295 295 294 294 294 294 293 293 292 292 292 291 291 290
314 315 312 313 313 314 313 313 313 313 311 311 310 309 307 306 306 305 306 304 305 305 305 304 302 300 300 299 299 299 299 298 297 296 295 294 294 294 294 293 293 293 292 292 291 291 291 290 290
314 314 314 313 313 314 313 315 312 311 309 310 310 307 307 306 307 308 307 307 306 306 305 304 302 300 299 299 299 299 298 297 296 296 295 293 293 293 293 293 293 293 292 291 291 291 290 289 289
312 312 313 314 313 312 312 314 312 310 309 310 307 307 308 309 306 309 309 309 307 307 306 304 301 300 299 299 298 298 298 297 296 295 294 293 293 293 292 292 292 291 291 290 290 289 289 289 289
311 313 313 313 313 313 312 313 312 310 310 308 307 306 306 308 309 308 310 309 308 307 306 303 300 300 299 298 298 297 297 296 295 294 294 293 293 292 292 292 292 291 290 290 289 289 289 289 288
311 311 311 313 313 314 314 313 313 312 310 309 309 310 311 310 308 309 309 309 307 305 303 301 300 299 298 297 297 296 296 295 294 294 293 292 292 291 291 290 290 289 289 289 289 288 288 288 288
312 312 311 312 310 311 311 313 312 310 312 312 311 311 311 311 307 305 306 306 305 303 301 299 299 299 298 297 296 295 295 294 294 293 292 291 291 291 290 290 290 289 289 289 288 288 287 287 288
312 312 312 312 311 310 310 311 312 311 311 311 312 311 311 311 306 304 301 303 303 300 299 299 299 298 298 297 296 295 294 293 292 292 291 291 290 290 290 289 289 288 289 289 288 287 287 287 286
313 311 311 312 312 313 311 314 311 311 311 310 311 310 309 304 304 303 301 300 301 300 299 299 298 298 297 296 295 294 293 292 291 291 291 291 290 289 289 288 288 288 288 289 287 286 286 286 285
312 312 312 313 313 312 314 313 314 310 310 310 310 309 309 305 303 303 302 303 301 300 298 298 298 297 296 296 295 293 292 292 292 291 291 290 289 289 288 288 288 287 287 288 287 286 285 284 284
310 311 311 310 308 313 311 311 311 309 310 310 310 308 309 308 304 303 303 302 300 299 298 297 296 296 296 295 294 294 292 291 292 291 290 290 289 289 288 288 287 286 286 287 286 285 284 284 283
310 310 311 311 312 314 309 310 312 311 310 309 310 309 308 304 303 301 299 299 298 297 297 296 296 295 295 295 294 294 292 292 292 291 290 289 289 288 288 287 286 286 285 286 285 284 283 283 282
308 310 312 310 312 313 308 311 311 309 309 307 307 308 307 304 303 301 299 299 298 297 296 296 295 295 294 294 293 293 292 292 292 291 290 290 289 289 288 287 286 285 285 285 284 283 282 281 281
309 311 310 312 297 308 312 310 308 309 308 307 307 306 305 304 302 301 298 298 297 297 297 296 295 295 294 293 293 292 292 291 291 290 290 290 290 289 288 286 285 284 284 284 284 282 282 281 280
308 307 311 310 309 308 312 309 311 310 311 310 307 305 304 304 303 301 299 298 298 298 297 297 296 295 294 293 293 292 292 292 291 290 290 289 289 288 286 285 284 283 283 283 283 281 281 279 279
306 308 308 309 310 313 313 312 308 310 309 309 306 305 304 304 302 302 301 300 299 298 297 296 295 295 294 293 292 291 291 291 290 290 289 289 288 287 286 285 284 283 282 282 281 281 279 278 277
307 309 309 311 311 308 312 313 312 308 309 306 309 309 307 306 304 301 300 300 298 297 296 296 295 294 294 293 291 291 290 290 289 289 289 288 288 286 285 284 283 282 282 282 280 279 278 277 276
Wind_Speed
3 3 6 3 4 5 4 5 2 2 3 2 2 4 6 2 2 3 14 16 17 13 12 13 12 11 12 14 12 9 7 6 4 3 5 7 7 9 8 8 10 10 8 5 5 7 10 6 6
2 4 1 2 3 2 5 3 4 2 4 4 6 3 6 1 4 8 14 16 17 16 13 13 13 12 12 12 13 12 11 8 8 7 4 4 8 9 9 10 10 11 11 10 8 8 9 7 8
1 2 3 3 2 3 4 4 7 4 4 3 3 2 2 5 2 21 10 23 22 17 14 16 15 14 13 12 13 13 12 9 10 10 8 10 9 9 9 8 7 6 7 9 8 8 8 7 6
4 5 4 2 7 7 4 4 6 7 2 2 5 2 2 2 11 16 26 25 22 19 17 17 16 15 14 13 13 13 12 13 12 11 11 10 9 8 7 7 7 7 7 9 8 8 8 8 7
2 3 1 2 6 5 2 8 7 5 5 4 3 3 2 1 12 22 27 24 24 19 18 18 17 16 15 15 14 13 13 13 11 11 10 9 9 9 9 9 10 10 11 10 9 9 9 9 9
3 3 2 3 4 3 3 7 9 6 4 4 3 2 4 12 23 24 26 25 22 21 19 19 19 18 16 15 14 13 12 12 11 11 11 11 11 10 9 10 11 10 10 11 12 12 13 13 13
3 3 4 5 6 5 2 3 5 7 7 6 6 6 0 10 19 22 25 23 22 20 20 20 19 19 17 15 13 12 11 11 10 10 11 10 9 9 8 8 9 10 11 12 13 13 14 14 14
3 3 4 4 4 5 5 3 2 5 5 1 5 6 5 10 24 22 22 22 23 21 20 20 20 18 16 15 14 13 12 12 13 13 13 13 11 9 8 8 8 8 9 11 12 13 12 13 13
3 3 3 5 3 1 2 3 2 3 2 3 5 4 3 19 28 26 23 23 24 23 23 23 22 19 17 16 16 15 15 16 16 14 12 11 8 8 8 9 8 9 9 11 12 13 13 13 14
4 3 6 4 3 3 3 5 7 2 3 4 4 1 13 32 33 27 25 28 30 29 28 27 24 23 20 18 18 18 18 16 14 13 12 11 9 8 7 7 7 8 10 11 12 12 13 14 15
4 6 5 4 3 2 3 2 4 7 7 8 11 9 13 18 25 25 27 31 38 35 30 31 28 26 23 22 21 19 17 16 14 13 12 10 9 7 6 5 5 6 7 9 11 12 13 15 16
4 8 7 7 3 1 3 4 5 8 14 7 12 8 13 12 18 26 28 34 35 36 36 33 30 29 25 23 22 20 20 18 16 15 14 12 10 8 6 4 4 4 7 10 11 13 14 14 15
5 5 7 7 8 6 2 9 7 11 11 11 10 7 17 15 22 26 30 31 35 38 39 37 34 32 30 28 24 23 22 20 18 16 15 13 12 10 7 4 2 4 7 11 13 14 14 14 15
3 5 7 7 11 6 7 5 5 9 8 14 12 13 12 19 25 23 27 33 37 39 41 39 37 34 32 31 28 26 24 22 20 17 16 15 13 10 7 5 2 3 7 10 12 13 14 14 15
3 8 9 13 9 7 6 9 14 25 5 9 12 12 12 16 20 30 38 34 39 39 40 41 40 35 34 32 29 28 26 24 21 19 18 16 13 11 9 6 3 2 5 8 10 11 11 14 16
2 2 5 6 8 4 9 15 11 12 8 16 18 12 10 13 22 33 33 38 39 40 41 42 42 38 36 33 30 28 26 25 23 21 19 17 15 13 11 8 5 1 3 7 9 10 12 14 17
3 6 8 11 8 6 6 11 10 9 9 15 11 11 14 15 12 28 34 41 41 43 44 46 45 42 37 32 30 29 28 27 25 23 21 20 17 14 12 9 5 2 2 4 7 9 13 16 19
7 6 6 9 4 4 6 19 15 11 6 11 10 9 12 16 22 24 37 42 42 44 46 46 46 42 38 34 32 29 28 26 25 24 23 22 20 17 15 12 8 4 2 1 5 8 10 13 17
5 6 9 19 10 10 17 18 21 19 10 13 16 18 19 19 15 24 32 40 39 42 43 46 47 43 41 39 38 33 34 31 29 27 25 24 21 19 17 14 11 7 4 0 4 6 10 13 16
12 15 16 16 12 10 14 21 18 10 14 15 16 18 22 17 9 9 21 31 40 43 44 45 46 44 44 43 41 33 38 34 32 28 26 25 23 22 20 16 12 9 6 2 2 4 7 8 9
20 15 19 18 10 6 8 11 13 11 10 14 17 18 20 18 12 7 10 26 33 37 43 47 47 47 47 44 41 29 31 26 29 30 31 31 28 25 22 17 14 12 8 5 3 2 4 5 8
23 10 15 10 3 12 4 14 8 7 12 10 15 18 15 12 9 8 10 16 31 36 41 45 47 47 45 45 43 40 35 28 34 37 38 34 30 27 23 18 16 13 10 6 4 4 3 4 8
18 3 4 1 4 5 6 6 3 8 8 11 16 18 17 12 10 11 15 26 29 35 41 43 45 44 43 47 47 45 35 32 30 35 37 34 31 27 24 21 18 15 11 8 7 6 7 7 7
2 1 1 2 2 12 8 9 6 7 9 6 10 12 15 12 9 10 12 21 23 32 36 39 43 46 47 47 47 48 40 39 33 34 36 37 34 31 27 23 20 16 13 9 8 8 7 7 9
3 4 4 4 1 13 12 11 23 5 7 11 13 13 15 7 9 9 11 12 21 31 36 37 40 38 43 46 50 50 46 45 43 40 41 41 39 34 31 27 23 19 14 11 10 10 11 10 12
8 9 6 7 10 19 4 8 6 10 11 11 13 15 6 8 8 10 12 11 20 27 33 35 37 36 44 47 48 48 48 46 46 44 43 44 44 40 34 28 24 20 17 13 12 11 11 11 12
5 6 8 1 2 3 9 12 7 7 10 11 14 3 8 9 9 10 8 14 21 26 34 40 38 39 42 45 45 46 47 46 46 45 44 44 42 37 32 29 26 22 18 14 12 12 11 13 13
5 2 1 1 3 7 17 6 14 15 22 19 7 9 8 6 8 8 9 12 23 30 35 36 38 41 39 44 47 46 49 49 45 45 46 43 38 35 33 30 26 23 19 15 13 13 13 14 14
1 4 5 2 5 13 15 14 6 2 6 7 7 6 8 9 9 10 10 17 25 25 32 36 37 39 40 45 46 44 46 47 47 46 46 44 38 36 35 32 28 24 19 15 14 14 13 14 14
5 7 9 9 10 4 7 15 20 8 5 7 5 4 1 5 8 9 9 11 18 24 28 37 36 39 47 43 40 42 40 43 43 44 43 41 39 37 35 32 29 25 21 17 15 13 13 13 13
Wind_Direction
95 62 346 356 42 68 268 261 86 74 61 40 46 78 125 69 154 198 135 137 152 160 160 161 156 151 150 146 149 142 131 124 108 84 110 117 89 70 68 64 61 59 58 63 39 28 29 20 20
49 13 285 70 97 65 270 204 123 141 161 107 74 9 50 124 122 139 143 157 150 157 159 158 157 155 158 158 160 156 151 131 126 124 107 117 75 72 67 68 64 60 56 52 45 35 24 14 20
50 355 80 104 168 194 219 194 149 143 118 99 89 78 158 177 133 161 171 163 165 170 168 152 141 139 141 146 144 140 132 127 114 108 101 96 87 79 69 61 53 47 47 48 47 32 19 7 355
9 22 17 94 249 263 195 157 145 132 42 63 142 157 57 184 171 179 162 171 171 174 169 156 145 140 139 138 134 136 129 123 115 108 103 100 95 88 76 62 49 43 43 45 31 15 4 358 347
349 66 46 255 268 253 228 147 148 141 162 205 147 233 242 216 154 160 167 173 173 171 169 160 153 147 141 138 137 135 133 128 127 124 115 107 97 86 77 68 60 52 47 42 33 25 16 7 353
14 101 29 256 256 257 198 154 136 153 175 176 163 137 223 171 154 163 168 174 185 178 174 172 162 157 154 151 146 143 134 133 128 123 114 108 102 95 81 74 65 56 51 43 35 29 25 21 19
126 93 228 248 258 302 207 145 157 179 164 215 168 164 351 178 176 170 172 178 188 190 184 182 177 171 167 164 164 163 160 153 145 135 126 116 108 96 86 77 70 59 51 41 37 33 32 30 28
112 97 284 254 252 250 169 121 126 160 244 43 167 221 228 203 177 172 173 180 189 196 195 187 185 184 181 178 180 183 176 161 152 149 150 145 124 119 102 90 79 65 52 40 32 28 22 21 20
62 48 260 262 299 252 194 153 317 143 161 206 208 187 223 165 168 170 176 181 190 199 199 196 189 189 186 182 184 182 166 155 150 145 140 125 122 113 98 90 77 63 54 40 29 20 13 10 8
122 154 235 222 288 284 202 182 182 181 238 238 225 37 154 159 169 176 184 190 193 196 197 200 196 195 189 186 182 171 166 165 162 154 151 143 137 126 108 83 69 58 48 36 27 16 11 8 6
200 212 219 278 285 31 282 255 201 184 236 211 214 196 174 170 180 187 199 199 201 203 201 202 201 199 197 191 183 179 177 173 169 164 163 158 151 139 123 105 79 54 41 30 18 11 8 6 3
226 244 247 275 237 187 251 294 264 206 239 208 225 194 178 185 191 198 203 206 206 206 207 206 205 201 199 198 193 187 184 184 179 175 174 171 162 156 146 128 89 54 31 18 11 8 5 4 3
231 258 265 268 272 230 218 249 248 261 264 254 254 186 187 202 208 212 211 212 212 211 210 210 207 204 200 199 197 194 193 194 189 184 182 181 175 169 163 145 84 38 20 13 10 6 4 2 358
247 256 264 260 255 232 200 259 157 257 231 247 240 246 205 204 209 209 212 213 212 213 215 211 210 207 203 202 201 199 198 198 195 189 188 184 181 176 170 154 124 32 17 12 7 3 1 0 349
290 315 308 262 245 222 125 281 224 249 252 259 249 240 225 217 209 210 215 211 212 213 214 210 207 206 206 205 204 202 200 199 199 193 189 189 184 181 176 166 154 28 12 10 5 358 351 347 347
246 207 286 273 130 210 128 260 248 248 195 239 242 245 240 233 218 222 217 216 215 212 211 208 204 203 206 205 203 202 203 201 203 199 195 193 190 187 182 178 181 225 4 6 358 353 346 347 343
265 240 216 294 200 141 171 257 269 260 203 246 242 238 240 251 237 228 223 220 215 211 206 203 199 199 202 203 202 204 204 203 203 202 199 196 194 191 189 188 191 205 16 4 357 357 347 342 341
213 226 244 240 196 160 195 248 261 268 266 250 267 249 242 242 246 227 224 221 215 208 206 199 195 197 199 198 197 199 204 203 206 206 203 202 199 195 194 194 197 199 205 336 355 347 339 338 339
250 252 236 268 260 205 241 238 255 256 258 249 256 261 260 253 255 243 227 212 198 196 192 191 190 193 193 189 189 192 196 201 204 208 208 206 203 200 199 197 196 198 202 303 345 339 337 345 349
247 257 263 275 270 196 249 254 253 242 245 243 239 252 258 256 258 240 206 190 186 186 187 184 188 191 194 194 196 196 200 202 207 206 209 210 207 205 204 203 200 205 210 234 306 337 340 343 359
250 248 259 256 294 232 281 266 248 245 253 252 253 247 258 257 234 216 181 182 176 177 181 184 188 194 196 198 197 196 201 204 204 207 209 211 210 209 209 206 206 209 213 229 252 296 318 321 340
262 218 258 267 257 271 134 290 218 231 239 237 246 255 251 241 220 200 183 176 179 182 183 186 190 195 197 199 195 195 193 195 207 204 208 209 210 210 209 208 209 216 218 231 248 259 249 276 293
261 182 237 247 239 317 176 285 201 197 242 247 245 249 257 243 205 192 191 190 186 178 182 186 192 194 197 203 203 200 201 204 207 210 209 206 208 211 211 210 213 217 218 222 233 239 248 253 267
110 204 198 40 84 263 189 209 184 195 213 235 246 248 250 256 199 198 186 172 178 182 182 186 190 196 201 205 203 206 203 205 204 207 205 203 206 207 210 211 214 214 216 215 232 245 253 272 274
171 78 301 315 24 260 184 221 252 275 216 214 231 239 238 181 180 168 162 172 176 182 185 187 191 194 199 204 206 209 208 210 212 208 204 203 203 205 207 209 208 211 213 214 229 247 263 273 274
184 176 173 225 259 277 157 251 256 224 232 232 223 229 223 177 187 182 181 180 185 189 189 191 195 197 203 206 209 211 213 213 217 217 211 209 206 208 207 205 207 208 211 216 232 246 262 268 268
169 181 219 334 64 1 257 274 294 256 281 271 247 168 223 203 189 191 182 188 189 191 197 196 198 203 206 207 209 212 215 215 216 216 215 215 212 210 204 204 204 206 212 216 233 245 254 261 260
170 146 110 278 208 242 273 274 271 286 278 272 240 210 206 203 196 201 204 198 199 201 203 204 207 206 207 210 211 211 214 218 219 218 214 214 213 206 201 200 203 207 211 217 230 244 250 251 254
150 248 234 215 181 243 258 271 152 97 316 290 260 225 197 212 216 213 212 211 209 202 202 206 208 209 210 214 212 210 213 216 218 221 220 217 212 205 202 202 203 208 211 216 228 242 248 252 261
168 213 215 238 259 237 272 265 276 294 334 288 110 270 290 217 238 233 218 214 199 202 201 207 209 210 215 214 211 212 213 216 216 217 218 212 207 206 204 203 203 207 209 217 226 231 241 252 263